[[{"header":{"parameterUnit":"m.s-1","parameterCategory":1,"la1":30.2991,"la2":30.254,"lo1":-89.0895,"lo2":-89.0444,"dy":0.0017,"dx":0.0017,"nx":28,"ny":28,"refTime":"2026-03-05T03:00:00:Z","depth":0,"parameterNumber":2,"parameterNumberName":"U-component_of_WINDS"},"data":[0,0,0,0,0,0,0,0,0,0,0,0,0,0,0,0,0,0,0,0,0,0,0,0,0,0,0,0,0,0,0,0,0,0,0,0,0,0,0,0,0,0,0,0,0,0,0,0,0,0,0,0,0,0,0,0,0,0,-3.9999,-4.0,0,-4.0076,-4.0077,-4.0078,-4.0034,-4.0032,-4.003,-4.0028,-4.0103,-4.0107,-4.011,0,0,0,0,0,0,0,0,0,0,0,0,0,-3.9813,-3.9817,-3.9999,-4.0,-4.0001,-4.0076,-4.0077,-4.0078,-4.0034,-4.0032,-4.0029,-4.0027,-4.0101,-4.0106,-4.0111,0,0,0,0,0,0,0,0,0,0,0,0,0,-3.9892,-3.9818,-3.9999,-3.9989,-3.9988,-4.0076,-4.0077,-4.0079,-4.0035,-4.0032,-4.0029,-4.0026,-4.01,-4.0106,-4.0112,-4.0213,0,0,-4.013,-4.0132,0,0,0,0,0,0,0,0,-3.9888,-3.9899,-3.9989,-3.9989,-3.9989,-4.0042,-4.0039,-4.0123,-4.0036,-4.0017,-4.0028,-4.0024,-4.0085,-4.0092,-4.0113,-4.0216,-4.0219,-4.013,-4.0134,-4.0137,-4.0138,0,0,0,0,0,0,0,-3.9882,-3.9896,-4.003,-3.999,-3.9991,-3.9979,-3.9987,-4.0055,-4.0068,-4.0019,-4.0016,-4.0026,-4.0084,-4.0108,-4.0115,-4.022,-4.013,-4.0135,-4.0139,-4.0141,-4.0412,-4.0416,0,0,0,0,0,0,-3.9878,-3.9891,-4.0027,-4.0032,-3.993,-3.9985,-3.9994,-4.0029,-4.0067,-4.007,-4.0028,-4.0023,-4.0099,-4.0108,-4.0117,-4.0238,-4.0136,-4.0142,-4.0145,-4.0409,-4.0413,-4.0417,0,0,0,0,0,0,-3.9874,-3.989,-4.0024,-3.9961,-3.9977,-3.9992,-4.0031,-4.0032,-4.0055,-4.0075,-4.0076,-4.005,-4.0097,-4.0109,-4.019,-4.024,-4.0145,-4.015,-4.0404,-4.041,-4.0415,-4.0482,0,0,0,0,0,0,-3.9869,-3.9889,-3.9928,-3.9962,-3.9981,-4.0096,-4.0034,-4.0036,-4.0066,-4.006,-4.0095,-4.0098,-4.0095,-4.0181,-4.0196,-4.0247,-4.0155,-4.04,-4.0407,-4.0413,-4.0475,-4.0489,-4.05,0,0,0,0,0,-3.9862,-3.9942,-3.993,-3.9947,-4.0029,-4.0099,-4.0109,-4.0106,-4.007,-4.0109,-4.0122,-4.0097,-4.0234,-4.019,-4.0206,-4.026,-4.0397,-4.0405,-4.0413,-4.0469,-4.0486,-4.05,0,0,0,0,0,0,-3.9911,-3.9946,-3.9933,-4.0027,-4.0061,-4.0091,-4.0139,-4.0124,-4.0167,-4.0159,-4.0153,-4.0161,-4.0246,-4.0261,-4.0212,-4.0361,-4.0309,-4.0321,-4.0347,-4.0363,-4.0375,-4.0368,-4.016,0,0,0,0,0,-3.9933,-3.9988,-4.0015,-4.0095,-4.0113,-4.0124,-4.0154,-4.0149,-4.0183,-4.0197,-4.0215,-4.0249,-4.0299,-4.0332,-4.038,-4.0479,-4.0485,-4.0524,-4.0536,-4.0547,-4.0556,-4.061,-4.0627,-4.0444,-4.0443,-4.0443,0,0,-3.9978,-4.0004,-4.0038,-4.0106,-4.0131,-4.0187,-4.0136,-4.0197,-4.0238,-4.0205,-4.0283,-4.0299,-4.0336,-4.0427,-4.0467,-4.0442,-4.0609,-4.0557,-4.0565,-4.0569,-4.062,-4.0637,-4.0653,-4.0449,-4.0448,-4.0447,0,0,-4.0088,-4.0114,-4.0183,-4.0211,-4.0252,-4.0259,-4.0277,-4.0311,-4.0321,-4.04,-4.0377,-4.0427,-4.0514,-4.0541,-4.0566,-4.0693,-4.0671,-4.0709,-4.0774,-4.0827,-4.0841,-4.0854,-4.0898,-4.0914,-4.0718,-4.0719,-4.0719,0,-4.0137,-4.0222,-4.0221,-4.0285,-4.0315,-4.0292,-4.0362,-4.0389,-4.0442,-4.0464,-4.0436,-4.0546,-4.0569,-4.0666,-4.0698,-4.072,-4.0738,-4.0702,-4.0839,-4.0852,-4.0864,-4.0906,-4.0923,-4.0723,-4.0722,-4.0722,-4.0722,0,-4.0281,-4.0341,-4.0392,-4.0447,-4.0484,-4.055,-4.0559,-4.0597,-4.059,-4.0601,-4.0683,-4.0711,-4.0764,-4.0787,-4.078,-4.0885,-4.0868,-4.084,-4.0787,-4.0886,-4.0925,-4.0941,-4.0729,-4.0727,-4.0726,-4.0725,0,0,-4.0418,-4.0476,-4.0494,-4.052,-4.0565,-4.061,-4.0678,-4.0732,-4.0764,-4.0803,-4.0858,-4.0935,-4.0911,-4.094,-4.0937,-4.0984,-4.1082,-4.095,-4.0951,-4.0972,-4.1198,-4.1216,-4.1235,-4.1069,-4.1073,-4.1075,-4.1194,0,-4.053,-4.0648,-4.0651,-4.0758,-4.0813,-4.0794,-4.0853,-4.0887,-4.09,-4.0948,-4.0963,-4.1017,-4.0981,-4.0999,-4.1045,-4.106,-4.1126,-4.1052,-4.1119,-4.1122,-4.1108,-4.1256,-4.1275,-4.1386,-4.121,-4.1212,-4.1214,0,-4.0675,-4.0721,-4.0835,-4.0875,-4.0898,-4.095,-4.1002,-4.1049,-4.1088,-4.1094,-4.113,-4.1121,-4.1189,-4.1138,-4.1232,-4.1181,-4.121,-4.1222,-4.1227,-4.123,-4.1171,-4.1261,-4.1421,-4.1437,-4.1239,-4.1237,-4.1235,0,-4.0762,-4.0853,-4.0933,-4.0956,-4.1005,-4.1042,-4.1064,-4.1101,-4.1134,-4.118,-4.1201,-4.1254,-4.1282,-4.1323,-4.1328,-4.1291,-4.1423,-4.1372,-4.1429,-4.1429,-4.1454,-4.1451,-4.1618,-4.1477,-4.1477,-4.1477,-4.1476,0,-4.0885,-4.0954,-4.0973,-4.1022,-4.11,-4.1105,-4.1182,-4.1201,-4.1234,-4.1286,-4.1274,-4.1323,-4.1329,-4.138,-4.1385,-4.1462,-4.1475,-4.1481,-4.1481,-4.1481,-4.148,-4.1497,-4.1488,-4.1481,-4.148,-4.1479,-4.1478,0,-4.0993,-4.1009,-4.1095,-4.1136,-4.1148,-4.1204,-4.1239,-4.1286,-4.13,-4.1366,-4.1382,-4.1403,-4.1463,-4.1474,-4.1543,-4.1547,-4.1639,-4.1632,-4.1626,-4.1624,-4.1679,-4.1673,-4.186,-4.1885,-4.173,-4.1732,-4.1733,0,-4.1068,-4.1122,-4.1171,-4.1206,-4.123,-4.1287,-4.1322,-4.133,-4.1366,-4.1418,-4.1459,-4.1518,-4.1565,-4.1661,-4.1682,-4.1736,-4.1729,-4.1792,-4.1737,-4.1735,-4.1728,-4.1724,-4.1729,-4.18,-4.1802,-4.1803,-4.1805,0,-4.12,-4.1207,-4.1258,-4.1315,-4.1358,-4.1401,-4.1443,-4.1472,-4.1486,-4.1528,-4.159,-4.1627,-4.1701,-4.1759,-4.1814,-4.1836,-4.1822,-4.1823,-4.1838,-4.1836,-4.183,-4.1833,-4.1651,-4.1817,-4.1816,-4.1815,-4.1814,-4.1814,-4.1293,-4.134,-4.1383,-4.1442,-4.1475,-4.1515,-4.1562,-4.1584,-4.1636,-4.1697,-4.1699,-4.1767,-4.1808,-4.188,-4.1906,-4.1959,-4.1939,-4.1962,-4.1967,-4.1972,-4.1977,-4.1825,-4.1969,-4.1969,-4.1969,-4.1969,-4.1968,0,-4.1423,-4.145,-4.1505,-4.1565,-4.1612,-4.16,-4.1646,-4.1685,-4.1746,-4.1786,-4.1834,-4.1906,-4.1964,-4.1992,-4.2049,-4.2086,-4.2082,-4.2101,-4.2096,-4.2102,-4.1992,-4.1972,-4.2104,-4.2104,-4.2104,-4.2104,-4.2104,-4.2104,-4.1495,-4.1575,-4.1587,-4.1684,-4.1711,-4.1779,-4.1806,-4.1844,-4.1876,-4.1958,-4.2007,-4.2026,-4.2061,-4.2122,-4.2175,-4.2182,-4.2202,-4.2224,-4.2227,-4.2123,-4.2109,-4.2096,-4.2077,-4.2229,-4.2229,-4.2333,-4.2334,-4.2334]},{"header":{"parameterUnit":"m.s-1","parameterCategory":1,"la1":30.2991,"la2":30.254,"lo1":-89.0895,"lo2":-89.0444,"dy":0.0017,"dx":0.0017,"nx":28,"ny":28,"refTime":"2026-03-05T03:00:00:Z","depth":0,"parameterNumber":3,"parameterNumberName":"V-component_of_WINDS"},"data":[0,0,0,0,0,0,0,0,0,0,0,0,0,0,0,0,0,0,0,0,0,0,0,0,0,0,0,0,0,0,0,0,0,0,0,0,0,0,0,0,0,0,0,0,0,0,0,0,0,0,0,0,0,0,0,0,0,0,1.6184,1.6185,0,1.6237,1.6238,1.6238,1.6276,1.6276,1.6277,1.6277,1.6326,1.6327,1.6328,0,0,0,0,0,0,0,0,0,0,0,0,0,1.6115,1.6116,1.6184,1.6185,1.6186,1.6237,1.6238,1.6238,1.6276,1.6276,1.6277,1.6277,1.6326,1.6327,1.6328,0,0,0,0,0,0,0,0,0,0,0,0,0,1.6154,1.6116,1.6184,1.6211,1.6214,1.6237,1.6238,1.6239,1.6276,1.6276,1.6277,1.6277,1.6325,1.6327,1.6328,1.6327,0,0,1.6333,1.6333,0,0,0,0,0,0,0,0,1.6152,1.6156,1.6206,1.6209,1.6212,1.6251,1.6231,1.6268,1.6276,1.6252,1.6277,1.6278,1.63,1.6304,1.6312,1.633,1.6332,1.6333,1.6334,1.6334,1.6335,0,0,0,0,0,0,0,1.6149,1.6154,1.6205,1.6207,1.6211,1.622,1.6226,1.6238,1.6272,1.6254,1.6257,1.6263,1.6302,1.6311,1.6314,1.6332,1.6333,1.6334,1.6335,1.6335,1.6355,1.6355,0,0,0,0,0,0,1.6142,1.6152,1.6203,1.6207,1.6183,1.622,1.6227,1.6238,1.6273,1.6278,1.6263,1.6265,1.6308,1.6312,1.6316,1.6319,1.6334,1.6336,1.6336,1.6356,1.6355,1.6355,0,0,0,0,0,0,1.6141,1.6147,1.6201,1.618,1.6188,1.6221,1.6233,1.6239,1.6248,1.6279,1.6285,1.6266,1.6309,1.6313,1.6325,1.6321,1.6336,1.6338,1.6356,1.6356,1.6355,1.6325,0,0,0,0,0,0,1.6139,1.6146,1.6146,1.618,1.6189,1.6211,1.6232,1.6239,1.6251,1.6254,1.6283,1.6289,1.6309,1.6323,1.6327,1.6324,1.6339,1.6357,1.6356,1.6355,1.6327,1.6324,1.6321,0,0,0,0,0,1.6136,1.6134,1.6146,1.6152,1.619,1.621,1.6215,1.624,1.625,1.6251,1.6272,1.6288,1.6321,1.6324,1.6328,1.6326,1.6357,1.6356,1.6355,1.6328,1.6324,1.6321,0,0,0,0,0,0,1.6095,1.6138,1.6152,1.6161,1.6182,1.6217,1.6218,1.6235,1.6252,1.6254,1.6284,1.629,1.6299,1.6314,1.6316,1.6329,1.6341,1.6341,1.6319,1.6316,1.6313,1.6309,1.634,0,0,0,0,0,1.6088,1.6102,1.6138,1.6142,1.6153,1.6184,1.6193,1.6211,1.6234,1.6242,1.6263,1.6283,1.6299,1.6308,1.6324,1.6329,1.6337,1.633,1.6327,1.6325,1.6324,1.6331,1.6329,1.6352,1.6352,1.6352,0,0,1.6072,1.6097,1.6103,1.6135,1.6153,1.6167,1.619,1.6203,1.6213,1.6243,1.6257,1.6274,1.6298,1.6307,1.6313,1.632,1.632,1.6324,1.6322,1.6322,1.633,1.6328,1.6326,1.6352,1.6352,1.6352,0,0,1.6049,1.6069,1.6077,1.6096,1.6125,1.6146,1.6148,1.6181,1.6194,1.6209,1.6232,1.6245,1.627,1.6287,1.6299,1.6289,1.6305,1.6293,1.6278,1.6284,1.6282,1.6281,1.6278,1.6276,1.6292,1.6292,1.6292,0,1.6025,1.6047,1.6077,1.609,1.6104,1.6135,1.6143,1.6159,1.6191,1.62,1.6208,1.6243,1.6261,1.6277,1.6275,1.6283,1.6286,1.6289,1.628,1.6279,1.6278,1.6276,1.6275,1.6291,1.6291,1.6291,1.6291,0,1.6017,1.6033,1.6035,1.6068,1.6082,1.6092,1.6124,1.6134,1.6152,1.6173,1.6189,1.6212,1.6235,1.624,1.6256,1.6258,1.6262,1.6275,1.6288,1.6274,1.6272,1.6272,1.6288,1.6289,1.6289,1.629,0,0,1.5967,1.6021,1.6021,1.6038,1.6074,1.6086,1.6098,1.6123,1.6132,1.6154,1.6165,1.6188,1.6202,1.6215,1.6234,1.6239,1.6232,1.6252,1.6253,1.6248,1.6238,1.6228,1.6227,1.6243,1.6243,1.6243,1.6236,0,1.5951,1.5976,1.6006,1.6021,1.6036,1.6068,1.6079,1.6102,1.6123,1.6139,1.6161,1.6177,1.6193,1.6202,1.6208,1.6231,1.623,1.6232,1.6254,1.6254,1.6247,1.6226,1.6215,1.6207,1.6235,1.6235,1.6235,0,1.5935,1.5958,1.5976,1.6014,1.6022,1.6031,1.6058,1.6073,1.61,1.6115,1.6133,1.6154,1.6169,1.6182,1.6203,1.6204,1.6215,1.6228,1.6228,1.623,1.6243,1.6228,1.6205,1.6204,1.6234,1.6234,1.6235,0,1.5899,1.5934,1.595,1.5964,1.6008,1.6015,1.6033,1.6062,1.6076,1.6099,1.6109,1.6132,1.6145,1.6162,1.619,1.6196,1.6209,1.6223,1.6221,1.6221,1.6222,1.6221,1.62,1.6228,1.6228,1.6228,1.6228,0,1.5877,1.5887,1.5935,1.5945,1.5957,1.5992,1.6002,1.6024,1.605,1.6064,1.6092,1.6105,1.6141,1.6157,1.6179,1.6194,1.6199,1.6212,1.6217,1.6209,1.6208,1.6216,1.6218,1.6228,1.6228,1.6228,1.6228,0,1.5838,1.5871,1.5891,1.5933,1.5944,1.5951,1.5987,1.5998,1.6022,1.604,1.6046,1.6082,1.6104,1.6134,1.6164,1.6179,1.6191,1.62,1.6183,1.6186,1.6183,1.6183,1.6167,1.6167,1.6194,1.6194,1.6194,0,1.5822,1.5831,1.5876,1.5889,1.5907,1.5927,1.5943,1.5978,1.5993,1.6028,1.6034,1.6059,1.6081,1.6114,1.6143,1.6167,1.6176,1.6169,1.618,1.6173,1.6177,1.6177,1.6178,1.6166,1.6165,1.6165,1.6165,0,1.5791,1.5808,1.5831,1.586,1.5879,1.5903,1.5928,1.5936,1.5977,1.5992,1.6017,1.6034,1.6067,1.6091,1.612,1.6138,1.6158,1.6162,1.6163,1.6155,1.6145,1.6151,1.6176,1.6161,1.6162,1.6162,1.6162,1.6162,1.5764,1.5774,1.5809,1.5834,1.5857,1.5881,1.5895,1.5922,1.5943,1.5975,1.5994,1.6018,1.6048,1.6089,1.6107,1.6126,1.6133,1.6134,1.6135,1.6135,1.6133,1.6142,1.6131,1.6131,1.6131,1.6131,1.6131,0,1.5735,1.576,1.5783,1.5819,1.584,1.586,1.589,1.5905,1.5926,1.5954,1.5976,1.6005,1.603,1.6062,1.609,1.6099,1.6109,1.6105,1.6104,1.6109,1.6124,1.6121,1.6096,1.6096,1.6096,1.6096,1.6096,1.6096,1.5723,1.5743,1.5764,1.5797,1.5821,1.5847,1.5863,1.5885,1.5908,1.594,1.5962,1.5984,1.6014,1.6044,1.6068,1.6077,1.6086,1.6079,1.6091,1.6104,1.6107,1.611,1.6107,1.6081,1.6081,1.6074,1.6074,1.6074]}]]